Telluride, CO

6:12 AM MST on December 15, 2019 (GMT -0700)
Telluride Regional

Weather History for KTEX - October, 2019

Change the Weather History Date:

Thursday, October 24, 2019

  Actual Average Record
Temperature  
Mean Temperature 29 °F -  
Max Temperature 35 °F 44 °F 65 °F (2014)
Min Temperature 23 °F 28 °F 21 °F (2001)
Degree Days  
Heating Degree Days 36    
Moisture  
Dew Point 13 °F    
Average Humidity 54    
Maximum Humidity 86    
Minimum Humidity 18    
Precipitation  
Precipitation 0.00 in - - ()
Sea Level Pressure  
Sea Level Pressure 30.29 in    
Wind  
Wind Speed 6 mph (West)    
Max Wind Speed 15 mph    
Max Gust Speed 24 mph    
Visibility 9 miles    
Events Snow    
Averages and records for this station are not official NWS values.
T = Trace of Precipitation, MM = Missing Value Source: NWS Daily Summary

Daily Weather History Graph

Daily Weather History Graph

Search for Another Location

Airport or City:

Astronomy

Oct. 24, 2019 Rise Set
Actual Time 7:28 AM MDT 6:22 PM MDT
Civil Twilight 7:02 AM MDT 6:49 PM MDT
Nautical Twilight 6:31 AM MDT 7:19 PM MDT
Astronomical Twilight 6:00 AM MDT 7:50 PM MDT
Moon 3:08 AM MDT (10/24) 4:46 PM MDT (10/24)
Length of Visible Light 11h 47m
Length of Day
10h 53m
Waning Crescent, 16% of the Moon is Illuminated
Oct 24
Waning Crescent
Oct 27
New
Nov 4
First Quarter
Nov 12
Full
Nov 19
Last Quarter

Hourly Weather History & Observations

Time (MDT) Temp. Windchill Dew Point Humidity Pressure Visibility Wind Dir Wind Speed Gust Speed Precip Events Conditions
12:15 AM 32.0 °F - 14.0 °F 48% 30.19 in 10.0 mi Calm Calm - N/A   Overcast
12:35 AM 30.2 °F 21.9 °F 14.0 °F 51% 30.19 in 10.0 mi West 9.2 mph - N/A   Overcast
12:55 AM 28.4 °F 18.0 °F 19.4 °F 69% 30.20 in 10.0 mi West 12.7 mph - N/A Snow Light Snow
1:15 AM 28.4 °F 20.4 °F 21.2 °F 74% 30.19 in 10.0 mi West 8.1 mph - N/A Snow Light Snow
1:35 AM 28.4 °F 18.0 °F 19.4 °F 69% 30.18 in 10.0 mi West 12.7 mph 17.3 mph N/A   Mostly Cloudy
1:55 AM 26.6 °F 21.2 °F 19.4 °F 74% 30.18 in 10.0 mi West 4.6 mph - N/A   Scattered Clouds
2:15 AM 26.6 °F 15.2 °F 19.4 °F 74% 30.17 in 10.0 mi West 13.8 mph - N/A   Scattered Clouds
2:35 AM 26.6 °F 15.2 °F 19.4 °F 74% 30.17 in 10.0 mi West 13.8 mph 24.2 mph N/A   Clear
2:55 AM 24.8 °F - 17.6 °F 74% 30.17 in 10.0 mi Calm Calm - N/A   Clear
3:15 AM 26.6 °F 21.2 °F 17.6 °F 69% 30.18 in 10.0 mi North 4.6 mph - N/A   Scattered Clouds
3:35 AM 26.6 °F 22.6 °F 15.8 °F 64% 30.18 in 10.0 mi North 3.5 mph - N/A   Mostly Cloudy
3:55 AM 26.6 °F - 14.0 °F 59% 30.18 in 10.0 mi Calm Calm - N/A   Overcast
4:15 AM 26.6 °F - 14.0 °F 59% 30.18 in 10.0 mi Calm Calm - N/A   Overcast
4:35 AM 26.6 °F 19.1 °F 17.6 °F 69% 30.19 in 10.0 mi WNW 6.9 mph - N/A   Overcast
4:55 AM 26.6 °F 22.6 °F 17.6 °F 69% 30.19 in 10.0 mi North 3.5 mph - N/A   Overcast
5:15 AM 26.6 °F - 15.8 °F 64% 30.20 in 10.0 mi Calm Calm - N/A Snow Light Snow
5:35 AM 26.6 °F 21.2 °F 15.8 °F 64% 30.20 in 10.0 mi North 4.6 mph - N/A   Overcast
5:55 AM 24.8 °F 19.1 °F 19.4 °F 80% 30.22 in 3.0 mi West 4.6 mph - N/A Snow Light Snow
6:15 AM 24.8 °F 20.5 °F 19.4 °F 80% 30.23 in 2.5 mi NW 3.5 mph - N/A Snow Light Snow
6:35 AM 24.8 °F - 19.4 °F 80% 30.23 in 3.0 mi Calm Calm - N/A Snow Light Snow
6:55 AM 24.8 °F - 17.6 °F 74% 30.24 in 1.8 mi Calm Calm - N/A Snow Light Snow
7:15 AM 24.8 °F 14.0 °F 19.4 °F 80% 30.24 in 5.0 mi West 11.5 mph - N/A Snow Light Snow
7:30 AM 23.0 °F 17.0 °F 19.4 °F 86% 30.25 in 5.0 mi SW 4.6 mph - N/A Snow Light Snow
7:55 AM 23.0 °F 13.1 °F 19.4 °F 86% 30.26 in 5.0 mi West 9.2 mph - N/A Snow Light Snow
8:15 AM 23.0 °F 13.1 °F 19.4 °F 86% 30.27 in 7.0 mi West 9.2 mph 16.1 mph N/A Snow Light Snow
8:35 AM 23.0 °F 12.4 °F 19.4 °F 86% 30.27 in 10.0 mi West 10.4 mph - N/A Snow Light Snow
8:55 AM 23.0 °F 17.0 °F 19.4 °F 86% 30.29 in 10.0 mi West 4.6 mph - N/A Snow Light Snow
9:15 AM 23.0 °F - 19.4 °F 86% 30.29 in 10.0 mi Calm Calm - N/A Snow Light Snow
9:35 AM 24.8 °F 19.1 °F 19.4 °F 80% 30.31 in 10.0 mi WSW 4.6 mph - N/A   Overcast
9:55 AM 26.6 °F 22.6 °F 19.4 °F 74% 30.31 in 10.0 mi West 3.5 mph - N/A   Mostly Cloudy
10:35 AM 28.4 °F 23.3 °F 19.4 °F 69% 30.33 in 10.0 mi West 4.6 mph - N/A   Clear
10:55 AM 28.4 °F 23.3 °F 17.6 °F 64% 30.33 in 10.0 mi WSW 4.6 mph - N/A   Clear
11:15 AM 30.2 °F 26.7 °F 17.6 °F 60% 30.33 in 10.0 mi West 3.5 mph - N/A   Scattered Clouds
11:35 AM 32.0 °F 27.5 °F 17.6 °F 55% 30.33 in 10.0 mi WSW 4.6 mph - N/A   Scattered Clouds
11:55 AM 32.0 °F 26.4 °F 15.8 °F 51% 30.33 in 10.0 mi West 5.8 mph - N/A   Clear
12:15 PM 32.0 °F 26.4 °F 15.8 °F 51% 30.32 in 10.0 mi WNW 5.8 mph - N/A   Clear
12:35 PM 33.8 °F 27.7 °F 14.0 °F 44% 30.31 in 10.0 mi WNW 6.9 mph - N/A   Clear
12:55 PM 33.8 °F 27.7 °F 15.8 °F 48% 30.31 in 10.0 mi West 6.9 mph - N/A   Clear
1:15 PM 33.8 °F 25.8 °F 15.8 °F 48% 30.31 in 10.0 mi West 10.4 mph - N/A   Clear
1:35 PM 33.8 °F 26.4 °F 14.0 °F 44% 30.30 in 10.0 mi West 9.2 mph - N/A   Clear
1:55 PM 35.6 °F 27.5 °F 14.0 °F 41% 30.30 in 10.0 mi West 11.5 mph - N/A   Scattered Clouds
2:15 PM 35.6 °F 26.6 °F 10.4 °F 35% 30.29 in 10.0 mi West 13.8 mph 18.4 mph N/A   Scattered Clouds
2:35 PM 33.8 °F 23.9 °F 10.4 °F 38% 30.30 in 10.0 mi West 15.0 mph 20.7 mph N/A   Clear
2:55 PM 35.6 °F 26.6 °F 8.6 °F 33% 30.29 in 10.0 mi West 13.8 mph 19.6 mph N/A   Clear
3:35 PM 35.6 °F 30.7 °F -0.4 °F 22% 30.29 in 10.0 mi NW 5.8 mph - N/A   Clear
3:55 PM 35.6 °F 26.6 °F 3.2 °F 26% 30.29 in 10.0 mi WSW 13.8 mph 17.3 mph N/A   Clear
4:15 PM 35.6 °F 27.1 °F 3.2 °F 26% 30.31 in 10.0 mi West 12.7 mph 18.4 mph N/A   Clear
4:35 PM 35.6 °F 29.2 °F -4.0 °F 18% 30.31 in 10.0 mi NW 8.1 mph 23.0 mph N/A   Clear
4:55 PM 33.8 °F 25.8 °F -4.0 °F 20% 30.31 in 10.0 mi NNW 10.4 mph 17.3 mph N/A   Clear
5:15 PM 33.8 °F 27.7 °F -0.4 °F 23% 30.32 in 10.0 mi NNW 6.9 mph - N/A   Clear
5:35 PM 33.8 °F 24.8 °F 1.4 °F 25% 30.32 in 10.0 mi WNW 12.7 mph 18.4 mph N/A   Clear
5:55 PM 33.8 °F 24.8 °F -0.4 °F 23% 30.31 in 10.0 mi West 12.7 mph 19.6 mph N/A   Clear
6:15 PM 32.0 °F 23.0 °F -0.4 °F 25% 30.33 in 10.0 mi WNW 11.5 mph 17.3 mph N/A   Clear
6:35 PM 32.0 °F 26.4 °F 3.2 °F 30% 30.33 in 10.0 mi WNW 5.8 mph - N/A   Clear
6:55 PM 32.0 °F - 1.4 °F 27% 30.34 in 10.0 mi Calm Calm - N/A   Clear
7:15 PM 32.0 °F 28.7 °F 5.0 °F 32% 30.35 in 10.0 mi West 3.5 mph - N/A   Clear
7:35 PM 32.0 °F - 3.2 °F 30% 30.36 in 10.0 mi Calm Calm - N/A   Clear
7:55 PM 30.2 °F - 3.2 °F 32% 30.37 in 10.0 mi Calm Calm - N/A   Clear
8:15 PM 30.2 °F 25.4 °F 8.6 °F 40% 30.37 in 10.0 mi SW 4.6 mph - N/A   Clear
8:35 PM 28.4 °F 24.6 °F 8.6 °F 43% 30.39 in 10.0 mi West 3.5 mph - N/A   Clear
8:55 PM 28.4 °F - 10.4 °F 47% 30.39 in 10.0 mi Calm Calm - N/A   Clear
9:15 PM 28.4 °F - 8.6 °F 43% 30.39 in 10.0 mi Calm Calm - N/A   Clear
9:35 PM 28.4 °F - 10.4 °F 47% 30.41 in 10.0 mi Calm Calm - N/A   Clear
9:55 PM 28.4 °F 24.6 °F 10.4 °F 47% 30.42 in 10.0 mi SSW 3.5 mph - N/A   Clear
10:35 PM 26.6 °F - 10.4 °F 51% 30.44 in 10.0 mi Calm Calm - N/A   Clear
10:55 PM 26.6 °F - 10.4 °F 51% 30.44 in 10.0 mi Calm Calm - N/A   Clear
11:15 PM 26.6 °F - 10.4 °F 51% 30.44 in 10.0 mi Calm Calm - N/A   Clear
11:35 PM 26.6 °F - 10.4 °F 51% 30.44 in 10.0 mi Calm Calm - N/A   Clear
11:55 PM 26.6 °F - 10.4 °F 51% 30.44 in 10.0 mi Calm Calm - N/A   Clear